Regional Weather Roundup
Issued by NWS Goodland, KS

Home | Current Version | Previous Version | Text Only | Print | Product List | Glossary Off
Versions: 1 2 3 4 5 6 7 8 9 10 11 12 13 14 15 16 17 18 19 20 21 22 23 24 25 26 27 28 29 30 31 32 33 34 35 36 37 38 39 40 41 42 43 44 45 46 47 48 49 50

000
ASUS43 KGLD 231759
RWRGLD

GOODLAND FORECAST AREA HOURLY WEATHER ROUNDUP
NATIONAL WEATHER SERVICE GOODLAND KS
1200 PM MDT SAT JUL 23 2016

...OFFICIAL OBSERVATIONS...

CITY           SKY/WX    TMP DP  RH WIND       PRES   REMARKS
GOODLAND KS    SUNNY     94  61  33 NW9       29.95F
HILL CITY KS   SUNNY     94  63  35 SW13      29.87R
IMPERIAL NEB   SUNNY     86  67  52 W7        29.94S
MCCOOK NEB     SUNNY     87  69  54 NW9       29.89S
AKRON CO       SUNNY     91  49  23 N13G18    30.06S
BURLINGTON CO  SUNNY     93  58  30 N10       30.01S
LIMON CO       SUNNY     93  41  16 NE14G20   30.12S
$$

...UNOFFICIAL OBSERVATIONS...

CITY           SKY/WX    TMP DP  RH WIND       PRES   REMARKS
COLBY KS       SUNNY     91  64  40 SW6       29.93F
LENORA KS        N/A     91  32  12 MISG        N/A
NORTON KS      SUNNY     93  55  27 SW10      29.86F
$$



USA.gov is the U.S. government's official web portal to all federal, state and local government web resources and services.